Printer-friendly version

IAU Minor Planet Center

Minor Planet Center

MPEC 2005-V30 : 2005 VE

The following Minor Planet Electronic Circular may be linked-to from your own Web pages, but must not otherwise be redistributed electronically.


Read MPEC 2005-V29 Read MPEC 2005-V31


M.P.E.C. 2005-V30                                Issued 2005 Nov. 3, 13:24 UT

     The Minor Planet Electronic Circulars contain information on unusual
         minor planets and routine data on comets.  They are published
   on behalf of Commission 20 of the International Astronomical Union by the
          Minor Planet Center, Smithsonian Astrophysical Observatory,
                          Cambridge, MA 02138, U.S.A.

                  Supported in part by the Brinson Foundation
                  Supported in part by the TABASGO Foundation
             Prepared using the Tamkin Foundation Computer Network

                              MPC@CFA.HARVARD.EDU
          URL http://cfa-www.harvard.edu/iau/mpc.html  ISSN 1523-6714

                                    2005 VE

Observations:
     K05V00E* C2005 11 01.37793 04 30 47.95 +17 09 07.1          19.7 V EV030G96
     K05V00E  C2005 11 01.38027 04 30 47.52 +17 08 58.7          19.7 V EV030G96
     K05V00E  C2005 11 01.38590 04 30 46.51 +17 08 39.0          19.8 V EV030G96
     K05V00E  C2005 11 01.38827 04 30 46.11 +17 08 30.4          19.6 V EV030G96
     K05V00E  C2005 11 01.39397 04 30 45.10 +17 08 10.2          19.7 V EV030G96
     K05V00E  C2005 11 01.39634 04 30 44.67 +17 08 01.7          19.4 V EV030G96
     K05V00E  C2005 11 01.40198 04 30 43.70 +17 07 41.4          19.7 V EV030G96
     K05V00E  C2005 11 01.40435 04 30 43.27 +17 07 33.2          19.5 V EV030G96
     K05V00E  C2005 11 01.44822 04 30 35.56 +17 04 56.9          19.6 V EV030G96
     K05V00E  C2005 11 01.44910 04 30 35.42 +17 04 53.7          19.6 V EV030G96
     K05V00E  C2005 11 01.45766 04 30 33.91 +17 04 22.8          19.8 V EV030G96
     K05V00E  C2005 11 01.45854 04 30 33.76 +17 04 20.0          19.5 V EV030G96
     K05V00E  C2005 11 01.46720 04 30 32.25 +17 03 48.9          19.3 V EV030G96
     K05V00E  C2005 11 01.46809 04 30 32.07 +17 03 45.8          19.6 V EV030G96
     K05V00E  C2005 11 01.47688 04 30 30.56 +17 03 14.5          19.8 V EV030G96
     K05V00E  C2005 11 01.47775 04 30 30.38 +17 03 11.0          20.0 V EV030G96
     K05V00E  C2005 11 02.40832 04 27 54.57 +16 07 45.3          19.1 V EV030G96
     K05V00E  C2005 11 02.41324 04 27 53.67 +16 07 27.0          18.8 V EV030G96
     K05V00E  C2005 11 02.41815 04 27 52.77 +16 07 10.7          19.8 V EV030G96
     K05V00E  C2005 11 02.42304 04 27 51.91 +16 06 53.0          19.7 V EV030G96
     K05V00E  C2005 11 03.29849 04 25 23.65 +15 14 18.5          19.9 R EV030854
     K05V00E  C2005 11 03.31013 04 25 21.56 +15 13 38.4          19.6 R EV030854
     K05V00E  C2005 11 03.32806 04 25 18.27 +15 12 32.2          19.5 V EV030703
     K05V00E  C2005 11 03.34366 04 25 15.51 +15 11 37.2          19.7 V EV030703
     K05V00E  C2005 11 03.39544 04 25 06.09 +15 08 29.4          19.6 V EV030G96
     K05V00E  C2005 11 03.39610 04 25 05.98 +15 08 27.1          20.0 V EV030G96
     K05V00E  C2005 11 03.40081 04 25 05.12 +15 08 09.9          20.5 V EV030G96
     K05V00E  C2005 11 03.40154 04 25 04.98 +15 08 07.4          19.9 V EV030G96
     K05V00E  C2005 11 03.40619 04 25 04.15 +15 07 50.5          19.8 V EV030G96
     K05V00E  C2005 11 03.40685 04 25 04.00 +15 07 48.1          19.8 V EV030G96
     K05V00E  C2005 11 03.41148 04 25 03.18 +15 07 31.4          19.5 V EV030G96
     K05V00E  C2005 11 03.41213 04 25 03.07 +15 07 29.1          19.8 V EV030G96
     K05V00E  C2005 11 03.43789 04 24 58.40 +15 05 55.5          19.5 V EV030G96
     K05V00E  C2005 11 03.43990 04 24 58.03 +15 05 48.5          19.6 V EV030G96
     K05V00E  C2005 11 03.44190 04 24 57.67 +15 05 41.2          20.2 V EV030G96
     K05V00E  C2005 11 03.44388 04 24 57.33 +15 05 33.9          20.4 V EV030G96

Observer details:
703 Catalina Sky Survey.  Observer R. A. Kowalski.  Measurers E. C. Beshore,
    E. J. Christensen, G. J. Garradd, A. D. Grauer, R. E. Hill, R. A. Kowalski,
    S. M. Larson, R. H. McNaught.  0.68-m Schmidt + CCD.
854 Sabino Canyon Observatory, Tucson.  Observer J. E. McGaha.  0.36-m f/10.0
    Schmidt-Cassegrain + CCD.
G96 Mt. Lemmon Survey.  Observers S. M. Larson, R. Hill.  Measurers
    E. C. Beshore, E. J. Christensen, G. J. Garradd, A. D. Grauer, R. E. Hill,
    R. A. Kowalski, S. M. Larson, R. H. McNaught.  1.5-m reflector + CCD.

Orbital elements:
2005 VE
Epoch 2005 Oct. 17.0 TT = JDT 2453660.5                 MPC
M 118.92605              (2000.0)            P               Q
n   0.89653115     Peri.   32.02474     -0.27852129     +0.92394780
a   1.0651868      Node   223.44026     -0.94186004     -0.31618507
e   0.2750821      Incl.   22.41551     -0.18795093     +0.21528462
P   1.10           H   20.5           G   0.15
From 36 observations 2005 Nov. 1-3.

Ephemeris:
2005 VE                  a,e,i = 1.07, 0.28, 22                  q = 0.7722
Date    TT    R. A. (2000) Decl.     Delta      r     Elong.  Phase     V
2005 10 27    04 44.85   +22 16.6    0.349    1.284   140.9    29.2    20.0
2005 11 06    04 17.53   +12 30.9    0.336    1.307   157.2    17.1    19.6
2005 11 16    03 47.94   +02 45.5    0.348    1.326   163.1    12.5    19.6
2005 11 26    03 21.85   -05 00.6    0.387    1.341   151.8    20.3    20.1
2005 12 06    03 02.88   -10 00.5    0.446    1.351   138.2    29.1    20.7
2005 12 16    02 51.96   -12 38.3    0.517    1.357   126.5    35.7    21.2
2005 12 26    02 48.09   -13 37.7    0.594    1.358   116.7    40.3    21.6
2006 01 05    02 49.92   -13 33.0    0.673    1.355   108.3    43.5    22.0

Timothy B. Spahr             (C) Copyright 2005 MPC           M.P.E.C. 2005-V30

Read MPEC 2005-V29 Read MPEC 2005-V31


Our Web policy. Index to the CBAT/MPC/ICQ pages.


Valid HTML 4.01!